Terminal Aerodrome Forecast
Issued by NWS

Home | Current Version | Previous Version | Text Only | Print | Product List | Glossary On
Versions: 1 2 3 4 5 6 7 8 9 10 11 12 13 14 15 16 17 18
000
FTUS41 KCAR 270540
TAFFVE
TAF
KFVE 270540Z 2706/2806 31007KT P6SM SCT110 BKN200
     FM271500 28009G17KT P6SM SCT045
     FM280200 26005KT P6SM SCT100=

USA.gov is the U.S. government's official web portal to all federal, state and local government web resources and services.